Muskegon, MI

8:52 AM EDT on September 19, 2017 (GMT -0400)
Muskegon County

Weather History for KMKG - January, 2014

Change the Weather History Date:

Friday, January 10, 2014

  Actual Average Record
Temperature  
Mean Temperature 33 °F 26 °F  
Max Temperature 43 °F 31 °F 58 °F (1975)
Min Temperature 22 °F 20 °F -4 °F (1982)
Degree Days  
Heating Degree Days 32 39  
Month to date heating degree days 483 388  
Since 1 July heating degree days 2947 2834  
Cooling Degree Days 0 0  
Month to date cooling degree days 0 0  
Year to date cooling degree days 0 0  
Moisture  
Dew Point 28 °F    
Average Humidity 87    
Maximum Humidity 92    
Minimum Humidity 81    
Precipitation  
Precipitation 0.75 in 0.07 in 1.08 in (1975)
Month to date precipitation 1.58 0.72  
Year to date precipitation 1.58 0.72  
Snow  
Snow T in 0.90 in 22.00 in (1982)
Month to date snowfall 14.2 9.0  
Since 1 July snowfall 62.3 44.1  
Snow Depth 15.00 in    
Sea Level Pressure  
Sea Level Pressure 29.97 in    
Wind  
Wind Speed 11 mph (SSE)    
Max Wind Speed 22 mph    
Max Gust Speed 30 mph    
Visibility 2 miles    
Events Fog , Rain    
T = Trace of Precipitation, MM = Missing Value Source: NWS Daily Summary

Daily Weather History Graph

Daily Weather History Graph

Search for Another Location

Airport or City:

Trip Planner

Search our weather history database for the weather conditions in past years. The results will help you decide how hot, cold, wet, or windy it might be!

Date:

Astronomy

Jan. 10, 2014 Rise Set
Actual Time 8:15 AM EST 5:29 PM EST
Civil Twilight 7:44 AM EST 6:01 PM EST
Nautical Twilight 7:08 AM EST 6:36 PM EST
Astronomical Twilight 6:34 AM EST 7:11 PM EST
Moon 1:35 PM EST (1/10) 3:20 AM EST (1/10)
Length of Visible Light 10h 17m
Length of Day
9h 13m
Waxing Gibbous, 75% of the Moon is Illuminated
Jan 10
Waxing Gibbous
Jan 15
Full
Jan 24
Last Quarter
Jan 30
New
Feb 6
First Quarter

Hourly Weather History & Observations

Time (EST) Temp. Windchill Dew Point Humidity Pressure Visibility Wind Dir Wind Speed Gust Speed Precip Events Conditions
12:32 AM 21.9 °F 13.4 °F 17.1 °F 82% 30.19 in 5.0 mi SE 6.9 mph - N/A   Haze
12:46 AM 21.9 °F 13.4 °F 18.0 °F 85% 30.18 in 5.0 mi SE 6.9 mph - N/A   Overcast
12:55 AM 23.0 °F 13.9 °F 18.0 °F 81% 30.21 in 5.0 mi SE 8.1 mph - N/A   Haze
1:25 AM 23.0 °F 14.7 °F 18.0 °F 81% 30.17 in 5.0 mi SE 6.9 mph - N/A   Haze
1:55 AM 24.1 °F 17.0 °F 19.0 °F 81% 30.19 in 4.0 mi SSE 5.8 mph - N/A   Haze
2:44 AM 24.1 °F 15.2 °F 19.9 °F 84% 30.15 in 4.0 mi SE 8.1 mph - N/A   Overcast
2:55 AM 25.0 °F 16.3 °F 19.9 °F 81% 30.19 in 4.0 mi SSE 8.1 mph - N/A   Haze
3:55 AM 25.0 °F 15.5 °F 21.0 °F 85% 30.16 in 4.0 mi SE 9.2 mph - N/A   Overcast
4:55 AM 26.1 °F 17.6 °F 21.9 °F 84% 30.14 in 4.0 mi SE 8.1 mph - N/A   Overcast
5:55 AM 27.0 °F 18.7 °F 23.0 °F 85% 30.13 in 3.0 mi SSE 8.1 mph - N/A   Overcast
6:52 AM 28.4 °F 22.2 °F 24.8 °F 86% 30.09 in 2.5 mi SSE 5.8 mph - N/A   Overcast
6:55 AM 28.0 °F 20.8 °F 24.1 °F 85% 30.12 in 2.5 mi SSE 6.9 mph - N/A   Overcast
7:55 AM 28.9 °F 21.1 °F 26.1 °F 89% 30.12 in 1.0 mi SSE 8.1 mph - N/A   Overcast
8:35 AM 28.9 °F 21.1 °F 27.0 °F 92% 30.08 in 0.5 mi SSE 8.1 mph - N/A Fog Light Freezing Fog
8:55 AM 30.0 °F 21.1 °F 27.0 °F 88% 30.12 in 0.5 mi SSE 10.4 mph - N/A Fog Light Freezing Fog
9:17 AM 30.0 °F 21.1 °F 27.0 °F 88% 30.09 in 0.2 mi SSE 10.4 mph - N/A Fog Light Freezing Fog
9:55 AM 30.0 °F 21.1 °F 28.0 °F 92% 30.12 in 0.5 mi SSE 10.4 mph - N/A Fog Light Freezing Fog
10:30 AM 30.9 °F 22.8 °F 28.0 °F 89% 30.07 in 0.2 mi SSE 9.2 mph - N/A Fog Light Freezing Fog
10:52 AM 30.2 °F 21.9 °F 28.4 °F 93% 30.06 in 0.5 mi SSE 9.2 mph - N/A Fog Light Freezing Fog
10:55 AM 30.9 °F 22.8 °F 28.9 °F 92% 30.09 in 0.5 mi SSE 9.2 mph - N/A Fog Light Freezing Fog
11:35 AM 32.0 °F 24.8 °F 28.9 °F 88% 30.04 in 1.5 mi SSE 8.1 mph - N/A   Overcast
11:55 AM 32.0 °F 24.8 °F 28.9 °F 88% 30.04 in 1.5 mi SSE 8.1 mph - N/A   Overcast
12:55 PM 33.1 °F 24.9 °F 28.9 °F 85% 29.99 in 1.5 mi SSE 10.4 mph - N/A   Overcast
1:55 PM 34.0 °F 25.5 °F 28.9 °F 82% 29.94 in 2.0 mi SE 11.5 mph - N/A   Haze
2:55 PM 34.0 °F 26.0 °F 30.0 °F 85% 29.91 in 2.0 mi SE 10.4 mph - N/A   Overcast
3:38 PM 34.0 °F 26.0 °F 30.9 °F 89% 29.86 in 1.0 mi SE 10.4 mph - N/A   Overcast
3:55 PM 34.0 °F 26.0 °F 30.9 °F 89% 29.87 in 1.0 mi SE 10.4 mph - N/A   Overcast
4:16 PM 35.1 °F 27.4 °F 30.9 °F 85% 29.83 in 1.0 mi SE 10.4 mph - N/A   Overcast
4:55 PM 35.1 °F 27.4 °F 32.0 °F 89% 29.83 in 1.0 mi ESE 10.4 mph - 0.00 in Rain Light Rain
5:26 PM 35.1 °F 26.4 °F 32.0 °F 89% 29.79 in 1.0 mi SE 12.7 mph - 0.06 in Rain Rain
5:55 PM 35.1 °F 25.9 °F 33.1 °F 92% 29.80 in 1.0 mi SE 13.8 mph - 0.13 in Rain Rain
6:55 PM 36.0 °F 27.5 °F 33.1 °F 89% 29.76 in 1.0 mi SE 12.7 mph - 0.17 in Rain Rain
7:55 PM 37.9 °F 29.2 °F 35.1 °F 89% 29.70 in 1.0 mi SE 15.0 mph - 0.16 in Rain Rain
8:55 PM 39.9 °F 30.8 °F 37.0 °F 89% 29.64 in 1.0 mi SE 18.4 mph 27.6 mph 0.08 in Rain Light Rain
9:14 PM 41.0 °F 33.1 °F 37.9 °F 89% 29.60 in 1.0 mi SSE 15.0 mph - 0.01 in Rain Light Rain
9:22 PM 41.0 °F 33.9 °F 37.9 °F 89% 29.60 in 4.0 mi SSE 12.7 mph - 0.01 in Rain Light Rain
9:55 PM 41.0 °F 33.5 °F 37.9 °F 89% 29.60 in 4.0 mi SSE 13.8 mph - 0.07 in Rain Rain
10:55 PM 41.0 °F 34.3 °F 37.9 °F 89% 29.57 in 6.0 mi SSE 11.5 mph - 0.12 in Rain Light Rain
11:55 PM 42.1 °F 33.6 °F 39.0 °F 89% 29.55 in 10.0 mi South 18.4 mph 26.5 mph 0.02 in Rain Light Rain